Wind_Speed
70 75 72 79 84 87 78 77 79 87 91 95 102 105 99 102 104 86 87 89 96 103 107 110 109 105 93
70 76 78 81 86 79 75 80 85 86 94 98 103 101 105 107 90 88 90 94 102 106 109 108 106 98 85
72 75 76 79 82 74 78 83 88 92 91 97 104 105 103 108 90 91 93 99 106 107 108 107 103 90 78
77 80 81 81 79 77 82 82 89 86 94 100 98 103 104 101 92 92 96 103 105 108 108 105 98 83 73
75 77 71 76 79 81 86 88 92 96 94 96 97 101 102 98 94 94 99 104 105 105 106 102 88 78 68
72 72 72 75 76 83 83 88 93 98 95 98 101 100 102 94 95 98 102 104 106 107 103 92 78 73 65
68 69 78 81 82 87 89 91 92 93 96 100 98 97 94 90 94 98 103 105 106 104 97 80 68 67 59
62 65 74 79 79 82 86 85 90 94 100 98 96 97 90 89 94 97 101 104 106 103 89 74 61 62 52
70 74 82 85 84 89 88 90 92 95 96 93 94 91 87 90 93 96 101 103 101 96 82 69 60 56 48
72 77 76 79 86 90 86 91 93 94 89 91 95 85 90 91 92 93 100 100 97 84 74 63 56 50 46
73 76 81 88 90 88 87 87 90 87 86 91 77 84 89 94 93 96 99 98 90 76 67 58 51 46 41
76 77 79 85 84 87 83 84 82 83 88 87 79 83 89 95 93 98 99 93 82 70 60 53 45 39 38
76 80 82 84 81 83 77 84 78 81 81 78 79 83 89 90 95 98 98 91 78 68 58 50 43 39 37
69 75 75 74 78 74 72 74 81 82 83 75 77 85 89 88 95 95 94 86 75 63 54 47 45 41 37
67 71 72 72 73 64 70 77 80 82 73 73 77 86 87 93 97 94 88 75 67 56 46 45 43 41 37
65 65 67 58 61 65 71 77 76 68 68 71 79 82 84 86 89 88 75 67 57 49 42 42 40 36 35
55 47 49 56 63 69 72 67 60 64 68 73 77 81 85 87 88 81 70 61 52 46 42 40 34 31 29
Wind_Direction
298 292 287 290 295 299 302 301 299 306 307 308 313 316 317 318 323 317 315 317 319 319 317 314 317 319 316
288 287 287 288 296 298 301 301 304 308 310 312 314 319 318 322 321 317 317 320 321 319 315 316 322 321 317
287 286 287 293 295 298 300 302 306 308 309 314 317 318 319 324 320 317 320 321 320 317 317 323 324 320 317
291 289 289 293 294 296 296 303 306 308 313 314 316 319 319 323 319 318 321 321 319 318 321 325 324 319 318
290 293 293 294 293 295 298 302 304 309 315 317 317 320 321 322 318 319 322 322 319 321 325 327 324 319 321
290 293 296 293 293 299 306 303 307 313 314 316 316 320 322 320 318 321 322 321 320 323 328 327 324 319 322
293 289 290 290 294 301 302 305 308 312 313 315 316 320 321 319 318 322 322 320 322 327 329 326 326 317 324
287 288 290 294 297 302 304 308 309 312 315 315 317 319 320 318 321 322 321 320 324 329 328 325 326 319 325
280 287 291 292 297 299 306 308 309 310 313 314 318 319 317 319 321 322 322 322 327 330 327 327 324 319 323
277 286 291 293 297 299 307 310 312 310 311 313 319 316 317 320 322 322 320 323 330 330 327 325 321 318 321
280 286 289 293 295 300 304 308 309 309 310 317 316 316 319 320 322 320 322 326 330 329 327 322 320 318 321
281 283 293 293 297 299 305 306 307 308 311 317 314 317 321 322 323 321 325 330 329 330 325 323 322 318 315
277 280 288 291 297 300 301 307 304 308 315 313 313 317 321 323 320 323 326 330 329 330 326 325 326 324 320
278 281 290 295 297 300 302 300 302 307 315 311 314 320 322 323 322 325 330 329 327 327 325 327 326 324 322
281 283 290 292 293 293 295 299 304 310 310 311 316 322 323 322 321 327 328 325 326 325 326 327 326 325 326
283 285 290 288 287 289 295 302 308 309 309 312 317 321 320 319 322 327 326 329 327 325 326 329 327 329 329
282 280 280 280 283 290 298 307 306 310 312 316 322 320 319 320 326 326 329 329 327 329 333 332 332 332 327
Height
10480 10472 10462 10451 10440 10431 10422 10414 10406 10393 10384 10373 10357 10343 10325 10309 10292 10277 10264 10250 10234 10217 10198 10176 10155 10133 10113
10462 10454 10447 10437 10426 10416 10410 10400 10391 10378 10366 10355 10340 10324 10306 10290 10272 10258 10245 10230 10213 10195 10174 10156 10129 10107 10088
10445 10436 10428 10416 10409 10401 10396 10385 10375 10361 10350 10338 10321 10305 10288 10271 10255 10240 10225 10210 10194 10171 10150 10129 10105 10084 10068
10427 10420 10410 10401 10392 10386 10378 10368 10356 10344 10333 10321 10305 10289 10270 10254 10239 10222 10207 10192 10172 10151 10129 10107 10085 10065 10050
10411 10403 10393 10386 10376 10368 10361 10353 10341 10326 10314 10304 10289 10275 10254 10236 10220 10204 10189 10172 10152 10132 10110 10089 10067 10047 10034
10393 10386 10376 10366 10360 10353 10344 10334 10324 10308 10296 10285 10272 10257 10238 10220 10204 10187 10170 10153 10132 10113 10093 10074 10053 10032 10022
10377 10370 10362 10352 10345 10335 10328 10319 10307 10294 10280 10268 10255 10242 10226 10209 10191 10172 10154 10134 10113 10095 10077 10058 10042 10021 10011
10362 10355 10346 10336 10328 10319 10313 10304 10292 10278 10264 10250 10239 10226 10211 10197 10179 10160 10139 10117 10098 10079 10057 10043 10028 10011 10001
10347 10341 10332 10322 10312 10303 10298 10289 10278 10265 10248 10237 10222 10208 10196 10182 10166 10146 10125 10103 10086 10066 10043 10029 10015 10003 9992
10331 10325 10316 10306 10297 10291 10283 10274 10261 10250 10235 10223 10209 10193 10177 10164 10153 10133 10110 10089 10074 10054 10033 10017 10004 9994 9983
10316 10309 10302 10292 10285 10279 10269 10259 10246 10235 10223 10211 10196 10182 10165 10146 10133 10115 10095 10074 10057 10040 10022 10007 9995 9983 9975
10301 10293 10289 10277 10273 10265 10257 10245 10234 10222 10210 10197 10183 10170 10154 10133 10117 10096 10074 10060 10041 10026 10010 9998 9986 9975 9965
10287 10281 10275 10269 10260 10253 10242 10235 10221 10210 10198 10185 10172 10158 10143 10124 10101 10083 10061 10038 10023 10010 9997 9986 9975 9966 9956
10274 10267 10261 10256 10248 10239 10231 10221 10210 10200 10188 10173 10160 10145 10126 10110 10089 10069 10050 10028 10010 10002 9989 9976 9965 9956 9948
10259 10255 10250 10243 10236 10227 10219 10209 10199 10190 10177 10163 10149 10133 10115 10094 10070 10055 10040 10021 10007 9994 9983 9969 9959 9950 9942
10244 10241 10237 10230 10223 10215 10207 10198 10188 10178 10167 10154 10141 10126 10109 10089 10067 10044 10028 10011 9998 9987 9975 9965 9954 9945 9936
10232 10228 10224 10219 10211 10204 10197 10188 10178 10168 10156 10143 10129 10111 10089 10070 10052 10027 10013 10001 9989 9977 9967 9958 9949 9939 9932